Havre, MT

9:02 AM MDT on June 22, 2017 (GMT -0600)
Havre City-County

Weather History for KHVR - March, 2013

Change the Weather History Date:

Sunday, March 24, 2013

  Actual Average Record
Temperature  
Mean Temperature 19 °F 36 °F  
Max Temperature 31 °F 48 °F 76 °F (1939)
Min Temperature 6 °F 25 °F -17 °F (1965)
Degree Days  
Heating Degree Days 46 29  
Month to date heating degree days 867 810  
Since 1 July heating degree days 6683 6930  
Cooling Degree Days 0 0  
Month to date cooling degree days 0 0  
Year to date cooling degree days 0 0  
Moisture  
Dew Point 10 °F    
Average Humidity 66    
Maximum Humidity 84    
Minimum Humidity 47    
Precipitation  
Precipitation 0.00 in 0.02 in 0.87 in (1883)
Month to date precipitation 0.40 0.39  
Year to date precipitation 1.92 1.00  
Snow  
Snow 0.00 in 0.20 in 6.00 in (1908)
Month to date snowfall 2.8 4.9  
Since 1 July snowfall 47.0 32.8  
Snow Depth -    
Sea Level Pressure  
Sea Level Pressure 30.43 in    
Wind  
Wind Speed 4 mph (ESE)    
Max Wind Speed 10 mph    
Max Gust Speed 13 mph    
Visibility 10 miles    
Events      
T = Trace of Precipitation, MM = Missing Value Source: NWS Daily Summary

Daily Weather History Graph

Daily Weather History Graph

Search for Another Location

Airport or City:

Trip Planner

Search our weather history database for the weather conditions in past years. The results will help you decide how hot, cold, wet, or windy it might be!

Date:

Astronomy

Mar. 24, 2013 Rise Set
Actual Time 7:12 AM MDT 7:38 PM MDT
Civil Twilight 6:41 AM MDT 8:09 PM MDT
Nautical Twilight 6:04 AM MDT 8:47 PM MDT
Astronomical Twilight 5:25 AM MDT 9:25 PM MDT
Moon 5:00 PM MDT (3/24) 5:36 AM MDT (3/24)
Length of Visible Light 13h 28m
Length of Day
12h 25m
Waxing Gibbous, 92% of the Moon is Illuminated
Mar 24
Waxing Gibbous
Mar 27
Full
Apr 2
Last Quarter
Apr 10
New
Apr 18
First Quarter

Hourly Weather History & Observations

Time (MDT) Temp. Windchill Dew Point Humidity Pressure Visibility Wind Dir Wind Speed Gust Speed Precip Events Conditions
12:53 AM 10.0 °F 3.6 °F 6.1 °F 84% 30.45 in 10.0 mi WSW 3.5 mph - N/A   Partly Cloudy
1:53 AM 10.0 °F 3.6 °F 5.0 °F 80% 30.45 in 10.0 mi South 3.5 mph - N/A   Clear
2:53 AM 8.1 °F - 3.0 °F 80% 30.46 in 10.0 mi Calm Calm - N/A   Clear
3:35 AM 8.6 °F 2.0 °F 3.2 °F 79% 30.33 in 10.0 mi SW 3.5 mph - N/A   Mostly Cloudy
3:53 AM 9.0 °F 2.4 °F 5.0 °F 84% 30.46 in 10.0 mi SSW 3.5 mph - N/A   Scattered Clouds
4:53 AM 8.1 °F 1.4 °F 3.9 °F 83% 30.46 in 10.0 mi SSW 3.5 mph - N/A   Clear
5:53 AM 7.0 °F - 1.9 °F 80% 30.48 in 10.0 mi Calm Calm - N/A   Clear
6:53 AM 6.1 °F - 1.9 °F 83% 30.49 in 10.0 mi Calm Calm - N/A   Clear
7:53 AM 9.0 °F - 5.0 °F 84% 30.50 in 10.0 mi Calm Calm - N/A   Clear
8:53 AM 12.9 °F - 9.0 °F 84% 30.49 in 10.0 mi Calm Calm - N/A   Clear
9:53 AM 18.0 °F 12.7 °F 10.0 °F 71% 30.50 in 10.0 mi ENE 3.5 mph - N/A   Clear
10:31 AM 17.6 °F 12.3 °F 10.4 °F 73% 30.36 in 10.0 mi Variable 3.5 mph - N/A   Mostly Cloudy
10:53 AM 18.0 °F - 10.0 °F 71% 30.51 in 10.0 mi Calm Calm - N/A   Mostly Cloudy
11:00 AM 19.4 °F - 10.4 °F 68% 30.37 in 10.0 mi Calm Calm - N/A   Scattered Clouds
11:15 AM 21.2 °F - 10.4 °F 63% 30.36 in 10.0 mi Calm Calm - N/A   Mostly Cloudy
11:22 AM 19.4 °F - 10.4 °F 68% 30.36 in 10.0 mi Calm Calm - N/A   Scattered Clouds
11:53 AM 23.0 °F 17.0 °F 10.9 °F 60% 30.50 in 10.0 mi ENE 4.6 mph - N/A   Partly Cloudy
12:53 PM 24.1 °F 16.0 °F 12.0 °F 60% 30.48 in 10.0 mi SE 6.9 mph - N/A   Clear
1:53 PM 25.0 °F - 10.9 °F 55% 30.47 in 10.0 mi Calm Calm - N/A   Clear
2:53 PM 27.0 °F 23.0 °F 10.9 °F 51% 30.45 in 10.0 mi SSW 3.5 mph - N/A   Clear
3:53 PM 30.0 °F - 12.9 °F 49% 30.43 in 10.0 mi Calm Calm - N/A   Clear
4:53 PM 30.0 °F 25.2 °F 12.0 °F 47% 30.42 in 10.0 mi ENE 4.6 mph - N/A   Clear
5:53 PM 30.9 °F 25.2 °F 12.9 °F 47% 30.41 in 10.0 mi ESE 5.8 mph - N/A   Clear
6:53 PM 30.0 °F 24.1 °F 12.9 °F 49% 30.40 in 10.0 mi ESE 5.8 mph - N/A   Clear
7:53 PM 26.1 °F 18.4 °F 16.0 °F 66% 30.40 in 10.0 mi East 6.9 mph - N/A   Clear
8:53 PM 24.1 °F 14.4 °F 16.0 °F 71% 30.39 in 10.0 mi East 9.2 mph - N/A   Clear
9:53 PM 21.9 °F 13.4 °F 16.0 °F 78% 30.38 in 10.0 mi ENE 6.9 mph - N/A   Clear
10:53 PM 19.9 °F 13.4 °F 15.1 °F 81% 30.37 in 10.0 mi ENE 4.6 mph - N/A   Clear
11:53 PM 19.0 °F 10.0 °F 15.1 °F 85% 30.35 in 10.0 mi East 6.9 mph - N/A   Clear